[[{"header":{"parameterUnit":"m.s-1","parameterCategory":1,"la1":30.2991,"la2":30.254,"lo1":-89.0895,"lo2":-89.0444,"dy":0.0017,"dx":0.0017,"nx":28,"ny":28,"refTime":"2025-06-18T09:00:00:Z","depth":0,"parameterNumber":2,"parameterNumberName":"U-component_of_WINDS"},"data":[0,0,0,0,0,0,0,0,0,0,0,0,0,0,0,0,0,0,0,0,0,0,0,0,0,0,0,0,0,0,0,0,0,0,0,0,0,0,0,0,0,0,0,0,0,0,0,0,0,0,0,0,0,0,0,0,0,0,3.0351,3.0353,0,3.0474,3.0476,3.0477,3.0468,3.0466,3.0465,3.0463,3.0588,3.0593,3.0598,0,0,0,0,0,0,0,0,0,0,0,0,0,3.0107,3.0111,3.0351,3.0353,3.0354,3.0474,3.0476,3.0477,3.0469,3.0466,3.0464,3.0462,3.0586,3.0592,3.0598,0,0,0,0,0,0,0,0,0,0,0,0,0,3.022,3.0113,3.0351,3.0365,3.0367,3.0474,3.0476,3.0478,3.0469,3.0466,3.0464,3.0461,3.0584,3.0592,3.0599,3.07,0,0,3.0622,3.0625,0,0,0,0,0,0,0,0,3.0213,3.0229,3.0361,3.0364,3.0367,3.0453,3.0435,3.0552,3.047,3.043,3.0463,3.046,3.0545,3.0556,3.0585,3.0706,3.0711,3.0623,3.0627,3.063,3.0633,0,0,0,0,0,0,0,3.0206,3.0223,3.04,3.0363,3.0366,3.0364,3.0377,3.0457,3.0501,3.0434,3.0433,3.0448,3.0546,3.0578,3.0588,3.0713,3.0622,3.0629,3.0634,3.0637,3.0919,3.0922,0,0,0,0,0,0,3.0195,3.0217,3.0396,3.0404,3.0282,3.037,3.0385,3.0428,3.0501,3.0509,3.045,3.0447,3.0566,3.0579,3.0592,3.0712,3.063,3.0637,3.0642,3.0916,3.092,3.0923,0,0,0,0,0,0,3.019,3.0211,3.0391,3.031,3.0333,3.0377,3.0426,3.0432,3.0463,3.0513,3.0521,3.0474,3.0564,3.0581,3.0672,3.0716,3.0641,3.0648,3.0913,3.0917,3.0921,3.0954,0,0,0,0,0,0,3.0183,3.0209,3.0249,3.0311,3.0337,3.047,3.0429,3.0436,3.0476,3.0473,3.0538,3.0546,3.0564,3.0661,3.068,3.0725,3.0654,3.0909,3.0915,3.092,3.095,3.0959,3.0968,0,0,0,0,0,3.0174,3.0254,3.0251,3.0272,3.0388,3.0473,3.0488,3.0507,3.048,3.0519,3.0551,3.0544,3.0709,3.0671,3.0692,3.074,3.0906,3.0913,3.092,3.0945,3.0958,3.0968,0,0,0,0,0,0,3.0196,3.0262,3.026,3.0362,3.0412,3.0471,3.0522,3.052,3.0578,3.0573,3.0594,3.0608,3.0699,3.0729,3.0685,3.0839,3.0804,3.0815,3.0816,3.0828,3.0837,3.0827,3.066,0,0,0,0,0,3.0212,3.0277,3.0331,3.0416,3.0441,3.0477,3.0515,3.0525,3.0577,3.0598,3.0637,3.0687,3.075,3.0791,3.0852,3.0954,3.0967,3.0998,3.1007,3.1014,3.1023,3.1076,3.1089,3.0945,3.0945,3.0945,0,0,3.0248,3.0292,3.0331,3.0422,3.0461,3.0526,3.0495,3.0565,3.0613,3.0609,3.0696,3.0726,3.0784,3.088,3.0924,3.0908,3.1066,3.1023,3.1028,3.1033,3.1084,3.1098,3.111,3.095,3.0949,3.0948,0,0,3.0344,3.0385,3.0459,3.0499,3.0559,3.0582,3.06,3.0659,3.0678,3.0767,3.0764,3.0821,3.093,3.097,3.1005,3.1114,3.1108,3.1133,3.118,3.1231,3.1243,3.1253,3.1289,3.1302,3.1142,3.1142,3.1142,0,3.038,3.0477,3.0497,3.0567,3.0606,3.0605,3.0678,3.0716,3.0793,3.0819,3.08,3.0935,3.0974,3.1077,3.1103,3.1133,3.1152,3.1125,3.124,3.125,3.126,3.1294,3.1308,3.1145,3.1144,3.1144,3.1144,0,3.0517,3.0584,3.0637,3.071,3.0755,3.0826,3.0855,3.0898,3.0904,3.0929,3.1017,3.1064,3.1132,3.1158,3.1166,3.1262,3.125,3.1235,3.1199,3.1275,3.1308,3.1321,3.1148,3.1147,3.1146,3.1146,0,0,3.063,3.0712,3.073,3.0762,3.0828,3.088,3.0951,3.1018,3.1052,3.1106,3.1163,3.1255,3.124,3.128,3.1291,3.1337,3.1416,3.1316,3.1317,3.133,3.1521,3.153,3.1545,3.1413,3.1416,3.1418,3.1515,0,3.073,3.0855,3.0874,3.0984,3.1044,3.1044,3.1105,3.1151,3.1176,3.123,3.1257,3.132,3.1299,3.1322,3.1367,3.1397,3.1454,3.139,3.1465,3.1468,3.1448,3.1563,3.1573,3.1662,3.1529,3.1531,3.1533,0,3.0864,3.0919,3.1035,3.1089,3.1115,3.117,3.1231,3.1284,3.1336,3.135,3.1393,3.1398,3.147,3.1432,3.1529,3.1485,3.1517,3.1536,3.154,3.1546,3.1503,3.1568,3.1692,3.1704,3.1553,3.1552,3.155,0,3.093,3.1034,3.1116,3.1143,3.121,3.1248,3.1277,3.1326,3.1364,3.1418,3.1442,3.1504,3.1537,3.1584,3.1605,3.1576,3.17,3.1665,3.1711,3.1711,3.1736,3.1733,3.1863,3.1761,3.1761,3.1761,3.176,0,3.1039,3.1109,3.1146,3.1196,3.1273,3.1294,3.137,3.1398,3.1441,3.1495,3.1499,3.155,3.1576,3.163,3.1648,3.1723,3.1739,3.1751,3.1754,3.1749,3.1747,3.1769,3.1762,3.1764,3.1763,3.1763,3.1762,0,3.1126,3.1154,3.1242,3.1297,3.1313,3.1367,3.1414,3.1461,3.1485,3.1553,3.1571,3.1608,3.1672,3.1698,3.1777,3.1788,3.1874,3.1874,3.1856,3.1857,3.1901,3.1895,3.2046,3.2066,3.1954,3.1955,3.1956,0,3.1192,3.1245,3.1305,3.1342,3.1372,3.1431,3.147,3.1492,3.1531,3.1593,3.1632,3.1696,3.1747,3.1849,3.1882,3.1942,3.1941,3.199,3.195,3.1942,3.1938,3.1933,3.1937,3.1997,3.1998,3.1999,3.1999,0,3.1304,3.1315,3.1371,3.143,3.1476,3.1524,3.1571,3.1601,3.163,3.1674,3.1739,3.1779,3.1858,3.192,3.1981,3.201,3.2009,3.2012,3.2025,3.2019,3.2005,3.201,3.1873,3.2008,3.2007,3.2006,3.2006,3.2006,3.1381,3.1427,3.1476,3.1537,3.1574,3.1617,3.1664,3.1693,3.1747,3.1813,3.1823,3.1891,3.1939,3.2021,3.2052,3.2105,3.2092,3.2113,3.2117,3.2121,3.2122,3.1999,3.2117,3.2117,3.2116,3.2116,3.2116,0,3.1491,3.1522,3.1578,3.1643,3.169,3.1686,3.1737,3.1776,3.1836,3.1881,3.1931,3.2004,3.2064,3.2102,3.2162,3.2197,3.2197,3.2211,3.2207,3.2213,3.2132,3.2113,3.2209,3.2209,3.2209,3.2209,3.2209,3.2209,3.1553,3.163,3.1646,3.1741,3.1772,3.1838,3.1868,3.1907,3.1942,3.2023,3.2073,3.2097,3.2138,3.2201,3.2255,3.2264,3.2285,3.2299,3.2307,3.223,3.222,3.221,3.2192,3.2304,3.2304,3.2384,3.2385,3.2385]},{"header":{"parameterUnit":"m.s-1","parameterCategory":1,"la1":30.2991,"la2":30.254,"lo1":-89.0895,"lo2":-89.0444,"dy":0.0017,"dx":0.0017,"nx":28,"ny":28,"refTime":"2025-06-18T09:00:00:Z","depth":0,"parameterNumber":3,"parameterNumberName":"V-component_of_WINDS"},"data":[0,0,0,0,0,0,0,0,0,0,0,0,0,0,0,0,0,0,0,0,0,0,0,0,0,0,0,0,0,0,0,0,0,0,0,0,0,0,0,0,0,0,0,0,0,0,0,0,0,0,0,0,0,0,0,0,0,0,3.4843,3.4844,0,3.49,3.4901,3.4902,3.4862,3.486,3.4858,3.4857,3.4911,3.4914,3.4918,0,0,0,0,0,0,0,0,0,0,0,0,0,3.4694,3.4697,3.4843,3.4844,3.4844,3.49,3.4901,3.4902,3.4862,3.486,3.4858,3.4856,3.491,3.4914,3.4918,0,0,0,0,0,0,0,0,0,0,0,0,0,3.4755,3.4698,3.4843,3.4831,3.4831,3.49,3.4901,3.4902,3.4863,3.486,3.4857,3.4855,3.4909,3.4914,3.4918,3.5001,0,0,3.4933,3.4935,0,0,0,0,0,0,0,0,3.4752,3.4761,3.4832,3.4832,3.4832,3.4871,3.4868,3.4935,3.4863,3.485,3.4857,3.4853,3.49,3.4905,3.4922,3.5003,3.5006,3.4933,3.4936,3.4938,3.4939,0,0,0,0,0,0,0,3.4748,3.4758,3.4865,3.4833,3.4833,3.4822,3.4827,3.4881,3.4889,3.4851,3.4849,3.4856,3.4899,3.4917,3.4923,3.5006,3.4933,3.4937,3.494,3.4942,3.5155,3.5158,0,0,0,0,0,0,3.4745,3.4755,3.4864,3.4867,3.4785,3.4827,3.4833,3.4861,3.4889,3.489,3.4858,3.4854,3.4911,3.4917,3.4924,3.5021,3.4938,3.4942,3.4945,3.5153,3.5156,3.5159,0,0,0,0,0,0,3.4742,3.4755,3.4861,3.481,3.4823,3.4832,3.4864,3.4864,3.4882,3.4894,3.4895,3.4876,3.4909,3.4918,3.4982,3.5023,3.4944,3.4949,3.5149,3.5154,3.5158,3.5216,0,0,0,0,0,0,3.4738,3.4754,3.4787,3.4812,3.4826,3.492,3.4867,3.4867,3.489,3.4885,3.491,3.4912,3.4907,3.4975,3.4986,3.5028,3.4952,3.5146,3.5151,3.5156,3.5211,3.5222,3.5232,0,0,0,0,0,3.4733,3.4801,3.4789,3.4803,3.4867,3.4922,3.493,3.4925,3.4894,3.4926,3.4933,3.4911,3.5016,3.4982,3.4994,3.5038,3.5143,3.515,3.5156,3.5206,3.522,3.5232,0,0,0,0,0,0,3.4781,3.4804,3.4791,3.487,3.4894,3.4915,3.4956,3.494,3.4973,3.4966,3.4957,3.4963,3.5029,3.504,3.5001,3.5117,3.5074,3.5084,3.5108,3.5122,3.5132,3.5128,3.4956,0,0,0,0,0,3.4801,3.4845,3.4862,3.4929,3.4942,3.4947,3.4971,3.4964,3.4989,3.4998,3.5011,3.5034,3.5072,3.5097,3.5133,3.5212,3.5216,3.5248,3.5258,3.5267,3.5275,3.5315,3.5329,3.518,3.518,3.518,0,0,3.4842,3.486,3.4888,3.4939,3.4958,3.5002,3.4956,3.5005,3.5037,3.5005,3.5067,3.5076,3.5101,3.5173,3.5204,3.5183,3.5316,3.5275,3.5282,3.5285,3.5323,3.5337,3.535,3.5185,3.5184,3.5183,0,0,3.4939,3.4958,3.5016,3.5035,3.5063,3.5065,3.5079,3.5102,3.5108,3.5169,3.5146,3.5182,3.5249,3.5267,3.5285,3.5387,3.5368,3.5399,3.5454,3.5494,3.5505,3.5516,3.5551,3.5564,3.5407,3.5407,3.5407,0,3.4986,3.5053,3.5047,3.5097,3.5119,3.5094,3.5151,3.5169,3.5207,3.5222,3.5198,3.528,3.5295,3.5369,3.5394,3.541,3.5424,3.5397,3.5505,3.5515,3.5524,3.5558,3.5571,3.5411,3.541,3.541,3.541,0,3.5109,3.5156,3.5198,3.5237,3.5264,3.5317,3.5317,3.5344,3.5335,3.5339,3.54,3.5418,3.5456,3.5473,3.5464,3.5545,3.5531,3.5506,3.5463,3.5542,3.5573,3.5586,3.5416,3.5415,3.5414,3.5413,0,0,3.524,3.5273,3.5288,3.5305,3.5333,3.5368,3.5419,3.5457,3.548,3.5507,3.5548,3.5604,3.558,3.5601,3.5593,3.5628,3.5706,3.5598,3.5599,3.5617,3.5795,3.5813,3.5829,3.5693,3.5695,3.5697,3.5792,0,3.5338,3.5429,3.5423,3.5507,3.5549,3.5524,3.5568,3.5589,3.5594,3.5628,3.5633,3.5672,3.5639,3.5651,3.5684,3.569,3.5742,3.5683,3.573,3.5732,3.5724,3.5845,3.5865,3.5954,3.5805,3.5807,3.5808,0,3.5465,3.5496,3.5585,3.5606,3.5623,3.5663,3.5696,3.573,3.5753,3.5753,3.5776,3.5762,3.5811,3.5766,3.5833,3.5793,3.5812,3.5817,3.582,3.5824,3.5775,3.5851,3.5983,3.5996,3.5828,3.5826,3.5825,0,3.555,3.5614,3.5675,3.569,3.5716,3.5744,3.5756,3.5776,3.5798,3.5827,3.5841,3.5875,3.5893,3.5918,3.5913,3.5881,3.5981,3.5936,3.5981,3.5981,3.6003,3.6002,3.6139,3.6016,3.6016,3.6016,3.6016,0,3.566,3.5715,3.5713,3.5751,3.5811,3.5803,3.5862,3.587,3.5888,3.5925,3.5905,3.594,3.5931,3.5965,3.5961,3.6016,3.6025,3.6025,3.6024,3.6027,3.6027,3.6039,3.6033,3.6019,3.6019,3.6018,3.6017,0,3.5765,3.5767,3.5831,3.585,3.5856,3.5899,3.5914,3.5949,3.5951,3.5998,3.6009,3.6012,3.6051,3.6049,3.6092,3.6089,3.6157,3.6148,3.615,3.6148,3.6193,3.6188,3.6342,3.6361,3.6227,3.6228,3.6229,0,3.5835,3.5877,3.59,3.5924,3.5938,3.5977,3.6,3.5993,3.6017,3.6045,3.6075,3.6112,3.6142,3.6204,3.621,3.6243,3.6234,3.6285,3.6239,3.624,3.6234,3.6231,3.6234,3.6294,3.6296,3.6297,3.6298,0,3.5959,3.5957,3.5992,3.6026,3.6054,3.6081,3.6105,3.6125,3.612,3.6148,3.6188,3.6211,3.6255,3.6292,3.6323,3.6333,3.6314,3.6313,3.6325,3.6329,3.6328,3.6328,3.6174,3.6309,3.6308,3.6307,3.6307,3.6306,3.6048,3.6083,3.6105,3.6143,3.6161,3.6183,3.6216,3.6223,3.6256,3.6293,3.6286,3.633,3.6349,3.6389,3.6402,3.6435,3.6416,3.6434,3.6439,3.6443,3.6448,3.6323,3.6441,3.644,3.644,3.644,3.644,0,3.6169,3.6182,3.6217,3.6252,3.6282,3.6263,3.6288,3.6313,3.6353,3.6373,3.6402,3.6447,3.6482,3.649,3.6523,3.6548,3.654,3.6557,3.6555,3.6557,3.6463,3.6449,3.6562,3.6562,3.6562,3.6562,3.6562,3.6562,3.6236,3.6294,3.6295,3.6361,3.6372,3.6417,3.6432,3.6452,3.6468,3.652,3.6549,3.6554,3.6568,3.6602,3.6632,3.6633,3.6646,3.6666,3.6664,3.6576,3.6564,3.6552,3.6539,3.6669,3.6669,3.6754,3.6755,3.6756]}]]